"Sample Date","Sample Time","Sample Value","Units","Flow Rate","Sample Interval","Number Channels","Micron Size 0","Counts/Channel 0","Micron Size 1","Counts/Channel 1","Micron Size 2","Counts/Channel 2","Micron Size 3","Counts/Channel 3","Micron Size 4","Counts/Channel 4","Micron Size 5","Counts/Channel 5","Micron Size 6","Counts/Channel 6","Micron Size 7","Counts/Channel 7","Micron Size 8","Counts/Channel 8","Micron Size 9","Counts/Channel 9","Micron Size 10","Counts/Channel 10","Micron Size 11","Counts/Channel 11","Micron Size 12","Counts/Channel 12","Micron Size 13","Counts/Channel 13","Micron Size 14","Counts/Channel 14","Micron Size 15","Counts/Channel 15","Micron Size 16","Counts/Channel 16","Micron Size 17","Counts/Channel 17","Micron Size 18","Counts/Channel 18","Micron Size 19","Counts/Channel 19","Micron Size 20","Counts/Channel 20","Micron Size 21","Counts/Channel 21","Micron Size 22","Counts/Channel 22","Micron Size 23","Counts/Channel 23","Micron Size 24","Counts/Channel 24","Micron Size 25","Counts/Channel 25","Micron Size 26","Counts/Channel 26","Micron Size 27","Counts/Channel 27","Micron Size 28","Counts/Channel 28","Micron Size 29","Counts/Channel 29","Micron Size 30","Counts/Channel 30","Micron Size 31","Counts/Channel 31"
"03/10/08","20:00:05",125099.000,"cc",28316.695,6.00,6,0.100,107351.000,0.200,11341.000,0.300,2721.000,0.500,2697.000,1.000,989.000,5.000,0
"03/10/08","20:00:11",163874.000,"cc",28322.379,6.00,6,0.100,142813.000,0.200,14814.000,0.300,2675.000,0.500,2603.000,1.000,969.000,5.000,0
"03/10/08","20:00:17",83496.000,"cc",28289.047,6.00,6,0.100,69974.000,0.200,7605.000,0.300,2360.000,0.500,2611.000,1.000,946.000,5.000,0
"03/10/08","20:00:23",77038.000,"cc",28366.240,6.00,6,0.100,64033.000,0.200,7054.000,0.300,2394.000,0.500,2608.000,1.000,949.000,5.000,0
"03/10/08","20:00:29",63132.000,"cc",28285.063,6.00,6,0.100,51104.000,0.200,5849.000,0.300,2504.000,0.500,2689.000,1.000,986.000,5.000,0
"03/10/08","20:00:35",104086.000,"cc",28259.258,6.00,6,0.100,88039.000,0.200,9604.000,0.300,2767.000,0.500,2667.000,1.000,1009.000,5.000,0
"03/10/08","20:00:41",92587.000,"cc",28291.488,6.00,6,0.100,77377.000,0.200,8544.000,0.300,2831.000,0.500,2837.000,1.000,998.000,5.000,0
"03/10/08","20:00:47",102268.000,"cc",28365.941,6.00,6,0.100,86508.000,0.200,9465.000,0.300,2621.000,0.500,2701.000,1.000,973.000,5.000,0
"03/10/08","20:00:53",78303.000,"cc",28276.082,6.00,6,0.100,65063.000,0.200,7209.000,0.300,2471.000,0.500,2638.000,1.000,922.000,5.000,0
"03/10/08","20:00:59",52380.000,"cc",28342.613,6.00,6,0.100,41570.000,0.200,4875.000,0.300,2381.000,0.500,2594.000,1.000,960.000,5.000,0
"03/10/08","20:01:05",232947.000,"cc",28324.053,6.00,6,0.100,204000.000,0.200,22447.000,0.300,2980.000,0.500,2600.000,1.000,920.000,5.000,0
"03/10/08","20:01:11",241746.000,"cc",28322.303,6.00,6,0.100,212555.000,0.200,22932.000,0.300,2859.000,0.500,2499.000,1.000,901.000,5.000,0
"03/10/08","20:01:17",181373.000,"cc",28349.033,6.00,6,0.100,158130.000,0.200,16850.000,0.300,2866.000,0.500,2565.000,1.000,962.000,5.000,0
"03/10/08","20:01:23",101011.000,"cc",28315.631,6.00,6,0.100,86133.000,0.200,8791.000,0.300,2432.000,0.500,2697.000,1.000,958.000,5.000,0
"03/10/08","20:01:29",137551.000,"cc",28311.815,6.00,6,0.100,118553.000,0.200,12485.000,0.300,2698.000,0.500,2816.000,1.000,999.000,5.000,0
"03/10/08","20:01:35",122545.000,"cc",28239.248,6.00,6,0.100,104389.000,0.200,11268.000,0.300,2917.000,0.500,2919.000,1.000,1052.000,5.000,0
"03/10/08","20:01:41",194418.000,"cc",28340.660,6.00,6,0.100,169547.000,0.200,17942.000,0.300,3006.000,0.500,2933.000,1.000,990.000,5.000,0
"03/10/08","20:01:47",129333.000,"cc",28349.830,6.00,6,0.100,111748.000,0.200,11345.000,0.300,2646.000,0.500,2662.000,1.000,932.000,5.000,0
"03/10/08","20:01:53",258098.000,"cc",28311.518,6.00,6,0.100,225765.000,0.200,25457.000,0.300,3203.000,0.500,2701.000,1.000,972.000,5.000,0
"03/10/08","20:01:59",95784.000,"cc",28264.156,6.00,6,0.100,81057.000,0.200,8501.000,0.300,2563.000,0.500,2713.000,1.000,950.000,5.000,0
"03/10/08","20:02:05",109967.000,"cc",28332.020,6.00,6,0.100,93988.000,0.200,9679.000,0.300,2623.000,0.500,2687.000,1.000,990.000,5.000,0
"03/10/08","20:02:11",122207.000,"cc",28414.502,6.00,6,0.100,104854.000,0.200,11109.000,0.300,2643.000,0.500,2615.000,1.000,986.000,5.000,0
"03/10/08","20:02:17",248512.000,"cc",28193.609,6.00,6,0.100,217400.000,0.200,24207.000,0.300,3241.000,0.500,2711.000,1.000,953.000,5.000,0
"03/10/08","20:02:23",126808.000,"cc",28235.318,6.00,6,0.100,109492.000,0.200,11412.000,0.300,2453.000,0.500,2549.000,1.000,902.000,5.000,0
"03/10/08","20:02:29",166271.000,"cc",28325.650,6.00,6,0.100,144592.000,0.200,15513.000,0.300,2650.000,0.500,2600.000,1.000,916.000,5.000,0
"03/10/08","20:02:35",124418.000,"cc",28391.615,6.00,6,0.100,107312.000,0.200,11175.000,0.300,2477.000,0.500,2575.000,1.000,879.000,5.000,0
"03/10/08","20:02:41",168358.000,"cc",28245.379,6.00,6,0.100,146646.000,0.200,15487.000,0.300,2784.000,0.500,2508.000,1.000,933.000,5.000,0
"03/10/08","20:02:47",175689.000,"cc",28308.070,6.00,6,0.100,153278.000,0.200,16110.000,0.300,2824.000,0.500,2570.000,1.000,907.000,5.000,0
"03/10/08","20:02:53",166377.000,"cc",28303.363,6.00,6,0.100,144853.000,0.200,15224.000,0.300,2776.000,0.500,2641.000,1.000,883.000,5.000,0
"03/10/08","20:02:59",80273.000,"cc",28321.865,6.00,6,0.100,67173.000,0.200,7201.000,0.300,2384.000,0.500,2591.000,1.000,924.000,5.000,0
"03/10/08","20:03:05",139879.000,"cc",28245.186,6.00,6,0.100,121132.000,0.200,12641.000,0.300,2583.000,0.500,2573.000,1.000,950.000,5.000,0
"03/10/08","20:03:11",79864.000,"cc",28328.129,6.00,6,0.100,66218.000,0.200,7286.000,0.300,2530.000,0.500,2846.000,1.000,984.000,5.000,0
"03/10/08","20:03:17",80696.000,"cc",28318.022,6.00,6,0.100,67289.000,0.200,7208.000,0.300,2514.000,0.500,2675.000,1.000,1010.000,5.000,0
"03/10/08","20:03:23",90141.000,"cc",28348.953,6.00,6,0.100,76120.000,0.200,8008.000,0.300,2462.000,0.500,2650.000,1.000,901.000,5.000,0
"03/10/08","20:03:29",82394.000,"cc",28319.107,6.00,6,0.100,69294.000,0.200,7225.000,0.300,2414.000,0.500,2544.000,1.000,917.000,5.000,0
"03/10/08","20:03:35",187306.000,"cc",28330.258,6.00,6,0.100,163240.000,0.200,17632.000,0.300,2876.000,0.500,2590.000,1.000,968.000,5.000,0
"03/10/08","20:03:41",168399.000,"cc",28347.500,6.00,6,0.100,147221.000,0.200,15176.000,0.300,2658.000,0.500,2435.000,1.000,909.000,5.000,0
"03/10/08","20:03:47",153345.000,"cc",28214.701,6.00,6,0.100,133653.000,0.200,13644.000,0.300,2675.000,0.500,2488.000,1.000,885.000,5.000,0
"03/10/08","20:03:53",66921.000,"cc",28332.484,6.00,6,0.100,55199.000,0.200,6003.000,0.300,2346.000,0.500,2483.000,1.000,890.000,5.000,0
"03/10/08","20:03:59",69316.000,"cc",28323.373,6.00,6,0.100,57572.000,0.200,6023.000,0.300,2326.000,0.500,2481.000,1.000,914.000,5.000,0
"03/10/08","20:04:05",85089.000,"cc",28283.561,6.00,6,0.100,71626.000,0.200,7387.000,0.300,2493.000,0.500,2690.000,1.000,893.000,5.000,0
"03/10/08","20:04:11",118197.000,"cc",28277.865,6.00,6,0.100,101478.000,0.200,10516.000,0.300,2588.000,0.500,2648.000,1.000,967.000,5.000,0
"03/10/08","20:04:17",88586.000,"cc",28302.459,6.00,6,0.100,74878.000,0.200,7827.000,0.300,2500.000,0.500,2515.000,1.000,866.000,5.000,0
"03/10/08","20:04:23",127965.000,"cc",28353.031,6.00,6,0.100,110670.000,0.200,11177.000,0.300,2609.000,0.500,2631.000,1.000,878.000,5.000,0
"03/10/08","20:04:29",129570.000,"cc",28297.615,6.00,6,0.100,112408.000,0.200,11227.000,0.300,2499.000,0.500,2546.000,1.000,890.000,5.000,0
"03/10/08","20:04:35",97018.000,"cc",28313.588,6.00,6,0.100,83141.000,0.200,8346.000,0.300,2381.000,0.500,2314.000,1.000,836.000,5.000,0
"03/10/08","20:04:41",138173.000,"cc",28290.711,6.00,6,0.100,120036.000,0.200,12272.000,0.300,2547.000,0.500,2449.000,1.000,869.000,5.000,0
"03/10/08","20:04:47",95830.000,"cc",28333.135,6.00,6,0.100,81769.000,0.200,8433.000,0.300,2345.000,0.500,2444.000,1.000,839.000,5.000,0
"03/10/08","20:04:53",111910.000,"cc",28352.039,6.00,6,0.100,96251.000,0.200,9915.000,0.300,2443.000,0.500,2480.000,1.000,821.000,5.000,0
"03/10/08","20:04:59",64889.000,"cc",28360.209,6.00,6,0.100,53352.000,0.200,5791.000,0.300,2388.000,0.500,2511.000,1.000,847.000,5.000,0
"03/10/08","20:05:05",68482.000,"cc",28322.920,6.00,6,0.100,57135.000,0.200,6014.000,0.300,2185.000,0.500,2327.000,1.000,821.000,5.000,0
"03/10/08","20:05:11",78748.000,"cc",28307.705,6.00,6,0.100,66225.000,0.200,6779.000,0.300,2412.000,0.500,2501.000,1.000,830.000,5.000,1.000
"03/10/08","20:05:17",36465.000,"cc",28369.223,6.00,6,0.100,25997.000,0.200,3737.000,0.300,2603.000,0.500,3093.000,1.000,1035.000,5.000,0
"03/10/08","20:05:23",30171.000,"cc",28377.588,6.00,6,0.100,21135.000,0.200,3025.000,0.300,2339.000,0.500,2726.000,1.000,946.000,5.000,0
"03/10/08","20:05:29",29372.000,"cc",28298.543,6.00,6,0.100,20599.000,0.200,3037.000,0.300,2188.000,0.500,2647.000,1.000,901.000,5.000,0
"03/10/08","20:05:35",30307.000,"cc",28285.094,6.00,6,0.100,21549.000,0.200,3021.000,0.300,2272.000,0.500,2575.000,1.000,890.000,5.000,0
"03/10/08","20:05:41",33995.000,"cc",28280.258,6.00,6,0.100,23869.000,0.200,3715.000,0.300,2517.000,0.500,2904.000,1.000,990.000,5.000,0
"03/10/08","20:05:47",29112.000,"cc",28340.045,6.00,6,0.100,19496.000,0.200,3171.000,0.300,2457.000,0.500,2943.000,1.000,1045.000,5.000,0
"03/10/08","20:05:53",26963.000,"cc",28276.484,6.00,6,0.100,18910.000,0.200,2597.000,0.300,2079.000,0.500,2472.000,1.000,905.000,5.000,0
"03/10/08","20:05:59",27222.000,"cc",28289.740,6.00,6,0.100,18671.000,0.200,2664.000,0.300,2222.000,0.500,2664.000,1.000,1001.000,5.000,0
"03/10/08","20:06:05",26962.000,"cc",28479.307,6.00,6,0.100,18500.000,0.200,2658.000,0.300,2154.000,0.500,2597.000,1.000,1053.000,5.000,0
"03/10/08","20:06:11",27005.000,"cc",28269.727,6.00,6,0.100,18593.000,0.200,2716.000,0.300,2130.000,0.500,2593.000,1.000,973.000,5.000,0
"03/10/08","20:06:17",27951.000,"cc",28344.613,6.00,6,0.100,18726.000,0.200,3009.000,0.300,2372.000,0.500,2796.000,1.000,1048.000,5.000,0
"03/10/08","20:06:23",26866.000,"cc",28408.086,6.00,6,0.100,18187.000,0.200,2822.000,0.300,2105.000,0.500,2709.000,1.000,1043.000,5.000,0
"03/10/08","20:06:29",27747.000,"cc",28232.193,6.00,6,0.100,18846.000,0.200,2742.000,0.300,2238.000,0.500,2845.000,1.000,1076.000,5.000,0
"03/10/08","20:06:35",27071.000,"cc",28291.326,6.00,6,0.100,18504.000,0.200,2659.000,0.300,2217.000,0.500,2727.000,1.000,964.000,5.000,0
"03/10/08","20:06:41",27469.000,"cc",28354.586,6.00,6,0.100,18654.000,0.200,2814.000,0.300,2238.000,0.500,2800.000,1.000,963.000,5.000,0
"03/10/08","20:06:47",26863.000,"cc",28428.281,6.00,6,0.100,18326.000,0.200,2776.000,0.300,2125.000,0.500,2625.000,1.000,1011.000,5.000,0
"03/10/08","20:06:53",26329.000,"cc",28413.688,6.00,6,0.100,18231.000,0.200,2660.000,0.300,2030.000,0.500,2493.000,1.000,915.000,5.000,0
"03/10/08","20:06:59",27296.000,"cc",28183.383,6.00,6,0.100,18543.000,0.200,2696.000,0.300,2246.000,0.500,2770.000,1.000,1041.000,5.000,0
"03/10/08","20:07:05",26488.000,"cc",28338.789,6.00,6,0.100,18274.000,0.200,2608.000,0.300,2156.000,0.500,2537.000,1.000,913.000,5.000,0
"03/10/08","20:07:11",26359.000,"cc",28395.172,6.00,6,0.100,18270.000,0.200,2611.000,0.300,2039.000,0.500,2530.000,1.000,909.000,5.000,0
"03/10/08","20:07:17",26078.000,"cc",28380.125,6.00,6,0.100,17974.000,0.200,2636.000,0.300,2112.000,0.500,2453.000,1.000,903.000,5.000,0
"03/10/08","20:07:23",26464.000,"cc",28352.397,6.00,6,0.100,18401.000,0.200,2553.000,0.300,2059.000,0.500,2514.000,1.000,937.000,5.000,0
"03/10/08","20:07:29",26391.000,"cc",28361.109,6.00,6,0.100,18311.000,0.200,2592.000,0.300,2097.000,0.500,2449.000,1.000,942.000,5.000,0
"03/10/08","20:07:35",26023.000,"cc",28304.102,6.00,6,0.100,18063.000,0.200,2602.000,0.300,2069.000,0.500,2382.000,1.000,907.000,5.000,0
"03/10/08","20:07:41",26345.000,"cc",28289.316,6.00,6,0.100,18138.000,0.200,2617.000,0.300,2122.000,0.500,2501.000,1.000,966.000,5.000,1.000
"03/10/08","20:07:47",26270.000,"cc",28367.615,6.00,6,0.100,18044.000,0.200,2767.000,0.300,2052.000,0.500,2505.000,1.000,902.000,5.000,0
"03/10/08","20:07:53",26339.000,"cc",28188.510,6.00,6,0.100,18039.000,0.200,2550.000,0.300,2049.000,0.500,2636.000,1.000,1065.000,5.000,0
"03/10/08","20:07:59",26282.000,"cc",28375.893,6.00,6,0.100,18059.000,0.200,2706.000,0.300,2063.000,0.500,2551.000,1.000,903.000,5.000,0
"03/10/08","20:08:05",26091.000,"cc",28314.537,6.00,6,0.100,18115.000,0.200,2627.000,0.300,2031.000,0.500,2434.000,1.000,884.000,5.000,0
"03/10/08","20:08:11",26464.000,"cc",28318.803,6.00,6,0.100,18343.000,0.200,2585.000,0.300,2117.000,0.500,2502.000,1.000,917.000,5.000,0
"03/10/08","20:08:17",26347.000,"cc",28307.113,6.00,6,0.100,17968.000,0.200,2746.000,0.300,2161.000,0.500,2549.000,1.000,923.000,5.000,0
"03/10/08","20:08:23",26222.000,"cc",28356.647,6.00,6,0.100,18207.000,0.200,2605.000,0.300,2062.000,0.500,2492.000,1.000,856.000,5.000,0
"03/10/08","20:08:29",26096.000,"cc",28326.117,6.00,6,0.100,17936.000,0.200,2650.000,0.300,2103.000,0.500,2455.000,1.000,952.000,5.000,0
"03/10/08","20:08:35",26009.000,"cc",28237.742,6.00,6,0.100,17799.000,0.200,2591.000,0.300,2059.000,0.500,2621.000,1.000,939.000,5.000,0
"03/10/08","20:08:41",26388.000,"cc",28289.889,6.00,6,0.100,18005.000,0.200,2711.000,0.300,2165.000,0.500,2597.000,1.000,910.000,5.000,0
"03/10/08","20:08:47",25781.000,"cc",28385.223,6.00,6,0.100,17716.000,0.200,2619.000,0.300,2108.000,0.500,2463.000,1.000,875.000,5.000,0
"03/10/08","20:08:53",25842.000,"cc",28256.523,6.00,6,0.100,17708.000,0.200,2662.000,0.300,1983.000,0.500,2550.000,1.000,939.000,5.000,0
"03/10/08","20:08:59",26055.000,"cc",28248.648,6.00,6,0.100,17896.000,0.200,2644.000,0.300,2054.000,0.500,2497.000,1.000,964.000,5.000,0
"03/10/08","20:09:05",26374.000,"cc",28277.930,6.00,6,0.100,17951.000,0.200,2639.000,0.300,2220.000,0.500,2610.000,1.000,954.000,5.000,0
"03/10/08","20:09:11",26732.000,"cc",28304.379,6.00,6,0.100,18181.000,0.200,2757.000,0.300,2262.000,0.500,2622.000,1.000,910.000,5.000,0
"03/10/08","20:09:17",26700.000,"cc",28295.404,6.00,6,0.100,18087.000,0.200,2737.000,0.300,2200.000,0.500,2648.000,1.000,1028.000,5.000,0
"03/10/08","20:09:23",26320.000,"cc",28480.238,6.00,6,0.100,18100.000,0.200,2630.000,0.300,2152.000,0.500,2514.000,1.000,924.000,5.000,0
"03/10/08","20:09:29",26367.000,"cc",28253.697,6.00,6,0.100,17946.000,0.200,2639.000,0.300,2175.000,0.500,2620.000,1.000,987.000,5.000,0
"03/10/08","20:09:35",26273.000,"cc",28283.686,6.00,6,0.100,18060.000,0.200,2656.000,0.300,2163.000,0.500,2421.000,1.000,973.000,5.000,0
"03/10/08","20:09:41",26182.000,"cc",28353.424,6.00,6,0.100,17898.000,0.200,2609.000,0.300,2155.000,0.500,2581.000,1.000,939.000,5.000,0
"03/10/08","20:09:47",26254.000,"cc",28260.984,6.00,6,0.100,17997.000,0.200,2573.000,0.300,2147.000,0.500,2542.000,1.000,995.000,5.000,0
"03/10/08","20:09:53",25987.000,"cc",28430.897,6.00,6,0.100,18089.000,0.200,2586.000,0.300,2047.000,0.500,2376.000,1.000,889.000,5.000,0
"03/10/08","20:09:59",25984.000,"cc",28327.164,6.00,6,0.100,17879.000,0.200,2547.000,0.300,2141.000,0.500,2527.000,1.000,890.000,5.000,0
"03/10/08","20:10:05",26149.000,"cc",28196.357,6.00,6,0.100,17917.000,0.200,2586.000,0.300,2079.000,0.500,2551.000,1.000,1015.000,5.000,1.000
"03/10/08","20:10:11",26868.000,"cc",28223.551,6.00,6,0.100,18171.000,0.200,2758.000,0.300,2280.000,0.500,2646.000,1.000,1013.000,5.000,0
"03/10/08","20:10:17",26384.000,"cc",28334.254,6.00,6,0.100,17886.000,0.200,2721.000,0.300,2129.000,0.500,2705.000,1.000,943.000,5.000,0
"03/10/08","20:10:23",26045.000,"cc",28347.022,6.00,6,0.100,17829.000,0.200,2578.000,0.300,2231.000,0.500,2469.000,1.000,938.000,5.000,0
"03/10/08","20:10:29",27130.000,"cc",28108.369,6.00,6,0.100,18154.000,0.200,2831.000,0.300,2335.000,0.500,2843.000,1.000,967.000,5.000,0
"03/10/08","20:10:35",25912.000,"cc",28499.215,6.00,6,0.100,17832.000,0.200,2596.000,0.300,2126.000,0.500,2451.000,1.000,907.000,5.000,0
"03/10/08","20:10:41",26831.000,"cc",28330.232,6.00,6,0.100,18064.000,0.200,2715.000,0.300,2296.000,0.500,2728.000,1.000,1028.000,5.000,0
"03/10/08","20:10:47",26158.000,"cc",28436.883,6.00,6,0.100,18009.000,0.200,2600.000,0.300,2093.000,0.500,2491.000,1.000,965.000,5.000,0
"03/10/08","20:10:53",26818.000,"cc",28270.162,6.00,6,0.100,18154.000,0.200,2642.000,0.300,2254.000,0.500,2722.000,1.000,1046.000,5.000,0
"03/10/08","20:10:59",27044.000,"cc",28198.777,6.00,6,0.100,18222.000,0.200,2830.000,0.300,2258.000,0.500,2681.000,1.000,1053.000,5.000,0
"03/10/08","20:11:05",26558.000,"cc",28381.578,6.00,6,0.100,18003.000,0.200,2795.000,0.300,2278.000,0.500,2567.000,1.000,915.000,5.000,0
"03/10/08","20:11:11",26421.000,"cc",28331.137,6.00,6,0.100,17836.000,0.200,2741.000,0.300,2197.000,0.500,2607.000,1.000,1040.000,5.000,0
"03/10/08","20:11:17",26215.000,"cc",28372.969,6.00,6,0.100,17989.000,0.200,2662.000,0.300,2112.000,0.500,2522.000,1.000,930.000,5.000,0
"03/10/08","20:11:23",25920.000,"cc",28434.928,6.00,6,0.100,17851.000,0.200,2613.000,0.300,2169.000,0.500,2433.000,1.000,854.000,5.000,0
"03/10/08","20:11:29",25906.000,"cc",28361.940,6.00,6,0.100,17723.000,0.200,2734.000,0.300,2122.000,0.500,2412.000,1.000,915.000,5.000,0
"03/10/08","20:11:35",26077.000,"cc",28340.309,6.00,6,0.100,17985.000,0.200,2567.000,0.300,2126.000,0.500,2525.000,1.000,874.000,5.000,0
"03/10/08","20:11:41",25646.000,"cc",28396.395,6.00,6,0.100,17790.000,0.200,2567.000,0.300,2042.000,0.500,2393.000,1.000,854.000,5.000,0
"03/10/08","20:11:47",25721.000,"cc",28381.322,6.00,6,0.100,17808.000,0.200,2552.000,0.300,2092.000,0.500,2366.000,1.000,903.000,5.000,0
"03/10/08","20:11:53",25577.000,"cc",28357.143,6.00,6,0.100,17811.000,0.200,2534.000,0.300,2031.000,0.500,2312.000,1.000,889.000,5.000,0
"03/10/08","20:11:59",25382.000,"cc",28237.334,6.00,6,0.100,17530.000,0.200,2516.000,0.300,2008.000,0.500,2478.000,1.000,850.000,5.000,0
"03/10/08","20:12:05",25619.000,"cc",28337.926,6.00,6,0.100,17794.000,0.200,2599.000,0.300,2022.000,0.500,2367.000,1.000,837.000,5.000,0
"03/10/08","20:12:11",25851.000,"cc",28155.488,6.00,6,0.100,17757.000,0.200,2607.000,0.300,2156.000,0.500,2505.000,1.000,826.000,5.000,0
"03/10/08","20:12:17",25931.000,"cc",28397.965,6.00,6,0.100,17866.000,0.200,2619.000,0.300,2062.000,0.500,2522.000,1.000,862.000,5.000,0
"03/10/08","20:12:23",26020.000,"cc",28405.660,6.00,6,0.100,17941.000,0.200,2595.000,0.300,2170.000,0.500,2457.000,1.000,857.000,5.000,0
"03/10/08","20:12:29",25706.000,"cc",28375.893,6.00,6,0.100,17592.000,0.200,2670.000,0.300,2145.000,0.500,2378.000,1.000,921.000,5.000,0
"03/10/08","20:12:35",25073.000,"cc",28335.934,6.00,6,0.100,17395.000,0.200,2452.000,0.300,2126.000,0.500,2261.000,1.000,839.000,5.000,0
"03/10/08","20:12:41",25703.000,"cc",28318.734,6.00,6,0.100,17887.000,0.200,2504.000,0.300,1985.000,0.500,2376.000,1.000,951.000,5.000,0
"03/10/08","20:12:47",25500.000,"cc",28264.160,6.00,6,0.100,17642.000,0.200,2521.000,0.300,2097.000,0.500,2362.000,1.000,878.000,5.000,0
"03/10/08","20:12:53",25646.000,"cc",28302.145,6.00,6,0.100,17641.000,0.200,2614.000,0.300,2142.000,0.500,2385.000,1.000,864.000,5.000,0
"03/10/08","20:12:59",25960.000,"cc",28356.443,6.00,6,0.100,17877.000,0.200,2634.000,0.300,2223.000,0.500,2425.000,1.000,801.000,5.000,0
"03/10/08","20:13:05",25498.000,"cc",28282.842,6.00,6,0.100,17582.000,0.200,2533.000,0.300,2114.000,0.500,2398.000,1.000,871.000,5.000,0
"03/10/08","20:13:11",25843.000,"cc",28285.492,6.00,6,0.100,17849.000,0.200,2628.000,0.300,2044.000,0.500,2431.000,1.000,891.000,5.000,0
"03/10/08","20:13:17",25613.000,"cc",28340.420,6.00,6,0.100,17617.000,0.200,2532.000,0.300,2116.000,0.500,2414.000,1.000,934.000,5.000,0
"03/10/08","20:13:23",25741.000,"cc",28312.018,6.00,6,0.100,17702.000,0.200,2665.000,0.300,2101.000,0.500,2421.000,1.000,852.000,5.000,0
"03/10/08","20:13:29",25806.000,"cc",28353.637,6.00,6,0.100,17854.000,0.200,2580.000,0.300,2056.000,0.500,2479.000,1.000,837.000,5.000,0
"03/10/08","20:13:35",25382.000,"cc",28363.709,6.00,6,0.100,17554.000,0.200,2539.000,0.300,2094.000,0.500,2354.000,1.000,841.000,5.000,0
"03/10/08","20:13:41",25266.000,"cc",28254.254,6.00,6,0.100,17507.000,0.200,2557.000,0.300,2104.000,0.500,2272.000,1.000,825.000,5.000,1.000
"03/10/08","20:13:47",25664.000,"cc",28276.307,6.00,6,0.100,17677.000,0.200,2628.000,0.300,2131.000,0.500,2376.000,1.000,852.000,5.000,0
"03/10/08","20:13:53",25083.000,"cc",28411.695,6.00,6,0.100,17455.000,0.200,2489.000,0.300,2032.000,0.500,2239.000,1.000,868.000,5.000,0
"03/10/08","20:13:59",25524.000,"cc",28276.930,6.00,6,0.100,17682.000,0.200,2563.000,0.300,2077.000,0.500,2360.000,1.000,842.000,5.000,0
"03/10/08","20:14:05",25475.000,"cc",28232.156,6.00,6,0.100,17466.000,0.200,2572.000,0.300,2129.000,0.500,2396.000,1.000,912.000,5.000,0
"03/10/08","20:14:11",25352.000,"cc",28286.904,6.00,6,0.100,17678.000,0.200,2512.000,0.300,1992.000,0.500,2339.000,1.000,830.000,5.000,1.000
"03/10/08","20:14:17",25753.000,"cc",28263.209,6.00,6,0.100,17628.000,0.200,2622.000,0.300,2259.000,0.500,2367.000,1.000,877.000,5.000,0
"03/10/08","20:14:23",25694.000,"cc",28255.522,6.00,6,0.100,17426.000,0.200,2640.000,0.300,2262.000,0.500,2480.000,1.000,886.000,5.000,0
"03/10/08","20:14:29",25378.000,"cc",28371.666,6.00,6,0.100,17430.000,0.200,2577.000,0.300,2141.000,0.500,2385.000,1.000,845.000,5.000,0
"03/10/08","20:14:35",25663.000,"cc",28252.281,6.00,6,0.100,17758.000,0.200,2612.000,0.300,2073.000,0.500,2400.000,1.000,820.000,5.000,0
"03/10/08","20:14:41",25714.000,"cc",28309.703,6.00,6,0.100,17884.000,0.200,2566.000,0.300,2093.000,0.500,2370.000,1.000,801.000,5.000,0
"03/10/08","20:14:47",25492.000,"cc",28240.711,6.00,6,0.100,17653.000,0.200,2540.000,0.300,2049.000,0.500,2400.000,1.000,850.000,5.000,0
"03/10/08","20:14:53",25814.000,"cc",28296.283,6.00,6,0.100,17831.000,0.200,2694.000,0.300,2062.000,0.500,2378.000,1.000,849.000,5.000,0
"03/10/08","20:14:59",25394.000,"cc",28164.578,6.00,6,0.100,17594.000,0.200,2607.000,0.300,1968.000,0.500,2355.000,1.000,870.000,5.000,0
"03/10/08","20:15:05",25515.000,"cc",28244.971,6.00,6,0.100,17547.000,0.200,2636.000,0.300,2089.000,0.500,2382.000,1.000,861.000,5.000,0
"03/10/08","20:15:11",25193.000,"cc",28216.979,6.00,6,0.100,17445.000,0.200,2490.000,0.300,2121.000,0.500,2316.000,1.000,821.000,5.000,0
"03/10/08","20:15:17",25406.000,"cc",28380.365,6.00,6,0.100,17510.000,0.200,2552.000,0.300,2072.000,0.500,2465.000,1.000,807.000,5.000,0
"03/10/08","20:15:23",25365.000,"cc",28297.857,6.00,6,0.100,17615.000,0.200,2617.000,0.300,2060.000,0.500,2273.000,1.000,800.000,5.000,0
"03/10/08","20:15:29",25714.000,"cc",28275.824,6.00,6,0.100,17865.000,0.200,2588.000,0.300,2019.000,0.500,2360.000,1.000,882.000,5.000,0
"03/10/08","20:15:35",25670.000,"cc",28322.957,6.00,6,0.100,17768.000,0.200,2529.000,0.300,2070.000,0.500,2481.000,1.000,822.000,5.000,0
"03/10/08","20:15:41",25597.000,"cc",28326.959,6.00,6,0.100,17572.000,0.200,2611.000,0.300,2165.000,0.500,2455.000,1.000,794.000,5.000,0
"03/10/08","20:15:47",25827.000,"cc",28326.424,6.00,6,0.100,17768.000,0.200,2605.000,0.300,2151.000,0.500,2416.000,1.000,887.000,5.000,0
"03/10/08","20:15:53",25040.000,"cc",28232.783,6.00,6,0.100,17561.000,0.200,2493.000,0.300,1945.000,0.500,2234.000,1.000,807.000,5.000,0
"03/10/08","20:15:59",25591.000,"cc",28378.607,6.00,6,0.100,17842.000,0.200,2509.000,0.300,2084.000,0.500,2365.000,1.000,791.000,5.000,0
"03/10/08","20:16:05",24914.000,"cc",28392.402,6.00,6,0.100,17460.000,0.200,2488.000,0.300,1918.000,0.500,2263.000,1.000,785.000,5.000,0
"03/10/08","20:16:11",24974.000,"cc",28355.658,6.00,6,0.100,17339.000,0.200,2530.000,0.300,1916.000,0.500,2366.000,1.000,823.000,5.000,0
"03/10/08","20:16:17",25311.000,"cc",28200.076,6.00,6,0.100,17620.000,0.200,2539.000,0.300,1968.000,0.500,2336.000,1.000,848.000,5.000,0